[Date Prev][Date Next][Thread Prev][Thread Next] - [Date Index][Thread Index][Author Index]
2 Line ISS Keps 11-3
- Subject: [sarex] 2 Line ISS Keps 11-3
- From: "Dave Larsen PhD" <doc@xxxxxxxxxxx>
- Date: Wed, 3 Nov 2004 04:34:38 -0800
ISS
1 25544U 98067A 04308.39240628 .00231068 00000-0 18138-2 0 588
2 25544 51.6382 335.4512 0009002 314.2079 145.1764 15.70230379340188
----
Via the sarex mailing list at AMSAT.ORG courtesy of AMSAT-NA.
To unsubscribe, send "unsubscribe sarex" to Majordomo@amsat.org
AMSAT Home